Theta_e
326 320 319 317 307 308 305 308 314 313 316 323 325 323 321 333 333 328 349 354 355 356 360 363 367 367 365 364 363 361 361 361 361 362 361 361 363 363 364 362 362 362 360 358 359 358 356 355 354
319 319 317 311 303 301 305 313 312 316 320 324 324 323 322 332 342 344 347 356 356 357 358 360 366 367 365 364 363 361 361 361 361 362 361 361 363 363 363 362 361 360 358 357 356 356 355 354 353
321 323 308 304 302 301 306 314 316 319 322 322 320 324 328 336 345 349 353 357 357 357 356 364 366 366 365 364 362 361 361 361 362 362 361 361 362 363 363 362 360 359 356 356 355 354 354 354 352
313 312 308 300 298 304 309 315 319 320 322 322 321 318 333 339 347 355 353 357 355 354 356 364 365 365 364 364 362 361 362 362 362 362 361 361 362 362 362 362 359 358 357 357 356 355 355 354 353
314 309 299 298 299 305 310 314 317 317 320 320 320 317 331 340 350 355 354 356 352 352 360 361 364 364 364 364 363 362 362 361 361 361 361 362 362 362 362 362 361 358 359 357 357 357 357 357 355
307 307 298 297 300 305 309 313 315 316 321 322 320 318 332 341 349 352 353 354 352 352 357 359 364 364 363 363 362 361 361 360 360 360 361 361 361 361 361 361 361 359 358 359 358 357 357 357 356
307 303 298 299 301 304 307 312 311 313 318 319 323 317 330 337 350 352 353 353 351 354 353 356 359 363 362 362 361 360 360 359 360 360 360 360 360 361 361 361 360 359 358 357 357 357 356 355 354
310 306 300 302 301 302 310 311 313 311 312 324 325 317 322 341 350 352 352 350 348 350 349 351 357 358 360 360 361 360 360 359 359 359 359 359 360 360 360 358 358 358 357 357 356 355 354 354 353
314 302 299 301 302 304 311 310 314 315 313 316 319 321 337 342 349 349 349 347 346 347 347 347 347 352 354 357 359 360 360 360 359 359 359 356 352 354 355 354 358 358 357 356 356 355 354 354 353
308 302 301 306 308 307 309 310 311 310 309 310 313 318 337 339 342 349 347 344 344 344 345 345 344 346 346 349 357 357 357 356 356 354 355 350 348 351 350 353 358 359 358 356 355 354 354 353 342
309 303 306 307 309 311 310 310 313 309 306 309 309 313 327 335 337 342 346 346 345 346 346 345 347 348 345 345 348 346 349 349 350 351 352 350 345 350 347 353 351 353 354 350 351 349 347 341 338
302 308 308 309 310 310 309 312 309 310 310 313 313 315 321 326 335 338 344 346 347 346 347 347 350 350 353 350 345 348 347 348 347 348 352 349 351 354 348 347 350 350 348 348 348 347 345 342 341
303 306 309 310 309 309 311 309 309 309 313 315 315 315 314 324 333 340 346 350 349 347 348 347 351 352 357 351 349 350 351 350 350 351 352 348 351 357 355 351 353 351 348 349 349 346 348 346 345
308 307 309 309 308 309 307 308 308 309 313 313 314 313 314 318 326 335 342 347 352 350 350 349 351 354 358 363 354 356 357 353 355 353 354 353 359 364 355 358 356 355 354 351 351 351 350 349 347
308 304 307 308 308 307 309 304 304 309 312 311 312 313 313 314 316 331 338 349 353 353 354 351 353 356 360 367 362 361 356 353 357 355 359 357 363 365 360 359 362 359 355 356 352 350 348 346 344
303 304 299 306 308 308 306 299 306 309 310 309 311 311 312 314 314 319 339 348 360 359 355 353 353 356 361 362 367 368 363 362 355 363 360 362 364 364 364 357 356 359 356 356 353 350 346 344 342
301 297 299 301 308 306 304 300 307 310 310 310 311 310 311 313 316 319 324 346 359 359 346 354 355 357 361 364 365 364 364 357 359 357 359 361 360 359 358 358 358 356 357 355 352 350 350 347 346
295 297 300 299 304 305 303 302 306 309 309 309 310 311 311 313 315 320 323 332 358 357 356 359 361 361 361 362 365 365 365 363 362 361 360 361 361 360 359 359 359 358 357 353 350 350 351 348 347
300 299 298 302 305 304 303 303 304 309 308 309 309 311 312 313 317 320 325 344 357 358 357 360 358 361 359 358 354 353 352 359 360 359 360 361 361 360 357 358 357 357 352 350 352 350 348 345 349
299 298 298 302 305 304 304 302 306 308 308 310 310 311 312 313 315 318 327 345 355 350 357 357 357 359 361 357 357 358 355 359 358 360 357 357 358 359 357 357 356 357 355 354 350 350 344 345 347
299 297 299 300 303 304 303 300 303 307 309 310 312 313 314 314 314 318 330 342 355 350 348 352 358 359 360 361 360 358 358 356 355 353 354 357 355 356 356 355 354 352 352 349 349 348 345 339 341
295 302 301 301 300 295 303 292 301 305 306 308 311 312 313 314 317 320 330 338 352 353 353 353 357 358 357 360 356 354 351 346 349 353 354 355 353 352 352 351 349 346 347 347 344 343 343 340 335
297 303 301 301 300 300 299 294 300 305 304 306 310 312 313 315 316 318 331 340 348 351 351 353 354 353 357 359 356 352 351 351 351 351 350 347 345 346 344 346 344 343 343 342 339 340 338 337 335
302 300 300 301 300 292 298 295 296 301 304 307 310 311 313 314 316 321 331 342 348 350 350 351 350 351 354 356 356 354 351 347 346 345 345 342 340 337 338 336 339 336 334 333 332 332 335 332 333
297 296 290 289 289 290 300 296 299 306 309 309 309 311 313 315 315 322 328 333 347 348 350 349 347 347 346 350 353 354 351 350 347 346 343 339 334 331 332 334 331 328 329 327 326 325 328 326 324
294 295 289 284 286 291 300 294 299 309 312 312 312 312 314 314 316 318 329 333 341 340 342 342 340 339 344 347 348 347 346 343 337 335 335 332 328 328 331 329 328 326 325 325 326 322 323 325 322
294 291 300 295 296 292 296 300 307 311 310 310 310 311 312 315 317 320 329 334 338 336 341 337 336 336 338 338 336 333 334 333 332 333 330 326 329 326 326 326 326 325 324 325 326 323 324 323 322
297 301 292 295 287 287 293 296 299 306 309 310 310 314 318 323 327 329 332 332 332 333 333 333 332 331 332 333 332 330 329 328 327 326 325 326 327 326 325 324 324 324 324 324 324 321 322 321 322
295 294 298 299 297 291 289 295 310 310 312 312 316 318 319 321 323 328 329 331 330 330 330 329 329 328 327 328 327 326 325 325 325 324 324 325 326 324 322 321 321 321 321 323 323 322 322 319 320
299 297 299 294 292 295 295 297 311 314 314 315 314 318 321 324 326 326 327 327 326 326 326 325 326 325 325 325 324 323 323 324 323 322 323 324 322 322 321 321 320 320 320 322 321 317 316 316 316
Wind_Speed
10 12 9 8 8 9 18 20 22 25 16 7 11 7 13 19 12 11 14 11 25 20 16 15 15 17 17 17 17 15 15 16 16 16 15 13 11 12 12 12 12 12 11 10 9 9 7 6 7
12 15 12 7 10 14 16 21 25 22 5 14 8 2 9 20 15 16 11 20 22 19 13 14 15 16 17 17 16 17 15 16 16 15 15 13 11 11 11 10 11 11 10 9 9 9 8 6 6
12 19 9 7 15 18 18 23 20 21 14 10 3 3 5 11 10 9 16 21 21 17 15 14 15 16 16 17 17 17 16 16 16 15 14 13 11 10 10 9 9 9 9 8 8 8 7 6 5
7 9 7 15 21 25 28 24 27 20 15 9 6 2 11 7 7 11 15 21 19 18 17 16 15 16 16 17 18 17 16 16 16 15 14 13 12 10 9 8 7 8 8 8 7 7 6 6 5
12 9 11 18 24 26 23 28 29 21 12 13 7 10 15 11 14 15 16 18 18 18 18 15 15 16 17 17 17 17 17 16 16 15 14 13 12 11 10 9 8 7 7 7 7 7 6 5 4
10 12 16 19 23 25 25 25 27 25 15 15 13 13 12 12 15 15 16 16 19 18 17 15 15 15 16 17 18 16 16 16 16 15 14 14 13 11 10 9 8 8 7 7 7 5 5 5 4
18 15 20 24 22 24 24 24 24 20 13 11 9 7 13 15 16 16 15 14 17 20 16 13 14 14 16 16 17 17 16 15 15 14 14 13 13 12 10 10 9 9 9 8 8 8 8 7 7
16 16 26 24 21 26 21 23 23 24 22 8 11 7 6 18 17 17 17 16 19 19 17 14 12 13 12 12 13 15 15 15 15 14 13 13 12 11 10 9 8 9 9 8 8 9 9 8 8
23 18 21 29 26 20 21 22 7 5 2 7 13 10 16 14 13 16 16 17 17 17 16 15 15 13 13 12 12 12 13 12 11 11 11 9 7 8 9 9 10 7 6 6 7 7 7 8 9
23 19 31 24 23 23 20 22 15 9 8 12 16 8 17 11 9 12 15 16 19 19 19 16 15 14 13 12 12 10 10 8 7 8 9 7 7 8 9 10 12 9 8 7 8 8 8 8 6
27 29 22 27 26 24 21 21 15 12 15 16 19 14 15 14 10 12 16 17 18 19 15 18 14 12 14 12 8 6 6 6 5 8 9 7 6 7 6 5 6 5 9 6 8 8 7 10 8
29 31 29 26 22 23 20 17 15 13 14 14 19 19 19 16 13 12 15 17 18 19 18 20 18 13 10 12 9 8 8 7 7 7 9 5 3 5 5 5 8 8 6 9 7 7 10 11 11
34 31 29 28 27 25 22 19 15 13 15 12 8 19 16 17 15 12 8 12 17 18 19 21 20 14 8 14 10 9 9 9 9 9 10 6 5 4 4 4 3 6 7 9 8 7 5 9 10
28 29 29 25 27 25 24 14 15 18 14 16 12 9 11 11 16 13 10 11 4 22 22 23 22 15 9 7 11 6 6 9 8 10 11 11 5 3 5 4 3 3 3 4 2 3 4 4 4
28 29 28 28 27 24 21 20 24 20 18 15 18 12 8 9 12 15 15 11 12 7 19 19 24 19 9 5 6 6 6 5 5 6 13 10 5 4 3 3 2 2 4 2 2 4 4 4 4
29 31 25 28 29 26 17 26 21 19 18 19 16 14 13 14 16 14 14 14 5 13 3 17 17 20 12 7 4 2 3 3 3 4 8 9 5 3 1 2 4 3 4 4 4 4 3 5 5
28 24 35 28 28 23 26 20 19 23 19 17 16 15 17 19 17 15 14 14 11 4 16 5 16 17 14 8 6 3 2 1 3 4 5 7 6 5 4 3 4 2 3 2 3 3 4 6 5
33 34 30 28 27 25 28 25 20 19 25 21 18 19 17 17 17 12 15 14 14 15 17 18 13 15 13 8 5 3 1 3 2 4 3 8 4 7 5 3 4 4 3 5 6 5 5 7 6
26 25 28 25 26 23 25 24 23 17 20 21 20 17 17 15 14 13 9 12 17 15 17 13 11 16 11 9 8 7 6 4 2 1 4 6 4 3 5 2 5 4 4 5 5 3 5 6 5
30 29 26 25 26 28 24 24 22 23 17 20 20 19 18 16 16 15 13 11 18 9 9 10 10 11 9 7 7 6 7 3 3 3 5 5 4 3 5 4 3 3 3 3 3 3 4 3 3
30 29 24 24 27 24 20 19 22 23 22 16 18 19 19 18 17 15 15 11 13 18 10 1 9 10 7 7 4 3 5 4 3 4 3 3 6 5 5 3 3 3 3 3 5 5 5 5 5
29 28 26 26 18 17 22 15 19 21 22 17 16 17 17 18 16 15 17 13 15 16 19 19 13 11 10 9 8 8 6 6 4 5 4 5 6 6 5 4 6 6 4 4 4 5 4 4 5
26 29 28 28 17 22 21 14 18 21 21 22 17 14 18 17 14 14 17 14 15 11 14 12 11 12 9 7 8 7 6 6 6 6 9 8 5 7 6 5 6 5 3 4 5 5 4 3 3
24 27 31 25 18 16 18 16 19 23 28 21 19 17 16 19 19 17 15 13 13 13 12 11 10 9 10 6 6 6 8 9 9 9 8 7 7 5 6 7 4 5 5 6 5 6 5 5 4
30 22 17 15 13 10 22 21 13 23 22 22 20 18 16 17 19 17 19 16 19 15 13 12 9 8 8 8 6 7 8 9 11 7 5 8 7 6 5 5 6 5 5 5 5 6 6 5 5
31 23 8 22 13 19 21 20 21 11 19 23 21 17 15 16 15 15 18 14 20 16 14 12 8 12 11 12 10 7 8 7 7 10 7 7 7 6 4 4 4 3 4 4 4 4 3 3 3
29 24 23 15 18 15 18 16 13 5 17 22 22 18 17 14 18 14 16 14 17 16 16 13 14 10 9 8 9 12 12 13 8 9 9 6 5 5 4 4 3 3 4 3 4 4 5 4 3
24 22 21 14 21 16 22 18 13 14 11 19 20 17 15 18 20 17 18 20 17 20 17 14 14 13 12 13 11 11 13 11 10 9 9 7 5 4 4 4 3 3 3 3 4 4 5 5 4
16 15 17 17 14 13 10 17 19 20 17 18 18 15 14 17 18 19 19 18 18 18 13 13 13 13 13 13 12 11 11 10 9 8 7 5 4 3 4 4 4 4 4 4 3 5 4 5 4
17 18 23 11 20 4 6 8 22 26 22 19 17 15 17 17 20 19 18 19 18 15 13 11 12 13 12 12 11 11 10 9 8 6 5 5 4 4 5 5 5 4 5 3 5 10 10 11 9
Wind_Direction
254 239 239 257 242 229 250 249 244 270 277 95 56 359 2 52 21 97 122 126 118 131 135 143 140 141 139 137 133 132 131 129 126 124 124 125 126 124 119 119 118 118 120 122 122 120 120 116 108
252 233 224 267 236 240 245 238 255 253 59 64 72 327 275 76 75 113 124 120 122 130 138 138 140 143 141 137 134 133 133 130 127 126 127 128 129 126 119 121 122 125 127 127 128 128 127 124 116
255 261 229 225 237 240 247 250 224 254 112 113 155 39 21 71 97 79 118 118 122 138 152 131 140 139 139 136 134 133 134 132 131 130 131 131 129 128 124 125 122 122 125 127 126 124 126 128 126
224 229 240 247 237 228 247 260 269 315 134 145 187 139 87 86 88 99 138 127 135 142 141 137 136 137 138 140 136 135 136 135 133 133 133 136 139 129 125 121 121 124 126 124 122 122 126 129 127
234 243 221 230 240 249 234 241 263 271 270 150 212 221 117 109 115 124 140 133 146 148 123 138 133 136 137 139 136 136 137 137 136 137 139 141 140 137 133 133 136 131 132 130 130 131 136 141 146
220 231 239 232 237 235 245 253 242 253 231 242 209 212 119 134 127 140 151 141 145 136 132 135 132 134 138 139 136 137 137 140 141 142 146 145 144 141 138 139 140 142 145 149 150 157 164 170 184
236 221 235 247 246 234 236 233 258 260 226 210 199 201 141 152 132 142 149 149 136 120 129 141 143 138 143 140 140 141 142 141 142 144 147 148 148 147 147 149 154 159 163 170 174 183 190 194 204
227 249 246 239 246 251 255 229 222 246 247 204 212 185 162 121 140 141 152 160 138 131 137 150 146 151 150 148 139 141 146 148 150 150 152 152 153 153 162 159 173 178 180 185 193 200 205 210 219
228 239 240 241 239 244 262 266 188 28 270 271 274 245 105 117 143 153 156 165 147 139 142 155 157 157 158 149 146 136 141 140 139 143 144 146 174 173 168 197 169 189 196 205 216 222 228 231 239
224 228 237 242 249 254 249 262 241 169 210 243 254 229 118 136 158 163 164 168 154 150 153 156 158 159 163 155 146 157 155 165 175 173 164 189 200 172 189 191 172 188 204 223 231 231 237 243 254
229 235 232 242 255 257 255 243 244 186 208 220 229 206 145 153 177 186 182 178 163 155 155 154 153 164 170 141 153 163 159 162 181 178 163 221 211 176 204 145 172 190 208 224 216 221 228 225 226
228 234 238 250 237 250 264 279 248 204 224 208 227 203 170 168 183 197 197 185 168 162 157 153 150 166 184 136 159 166 165 166 174 178 170 200 237 167 185 177 193 192 197 207 232 213 222 225 237
232 231 230 238 258 271 277 247 252 214 221 234 239 209 209 166 186 200 228 204 173 163 157 157 151 165 189 147 162 177 175 173 178 169 171 199 227 176 186 245 236 170 218 192 217 226 220 213 228
232 236 237 227 232 242 254 233 247 256 244 204 232 235 192 174 187 186 209 242 206 167 165 155 152 159 179 161 159 184 181 178 172 171 172 195 212 212 177 194 254 276 295 308 311 15 359 339 322
240 245 230 234 233 243 230 237 227 231 234 204 218 203 222 225 232 188 188 216 236 20 152 152 146 150 160 185 151 176 176 146 175 175 163 180 215 215 187 258 274 224 245 241 307 307 306 294 275
233 240 238 221 226 229 223 239 222 223 228 224 207 193 212 230 231 219 181 199 216 169 154 144 130 142 148 169 157 115 80 143 202 164 149 164 164 229 328 288 290 59 3 13 18 339 314 295 273
237 222 228 222 215 217 216 231 232 207 221 216 193 205 220 221 225 221 200 185 177 103 88 98 134 152 142 146 126 121 106 301 96 57 129 153 162 216 217 242 255 81 56 315 299 333 334 319 313
215 215 220 223 215 207 223 231 231 232 203 209 208 207 226 211 209 220 190 192 172 150 154 187 149 141 136 151 138 162 208 248 201 161 136 140 180 189 187 237 295 357 14 354 329 323 308 297 302
218 222 223 222 221 224 213 225 216 227 214 199 204 212 212 217 206 206 196 170 173 175 164 162 139 136 152 160 161 174 183 204 177 190 191 121 193 207 164 198 44 24 340 301 318 307 301 300 305
235 220 219 219 216 215 216 215 219 224 237 203 195 200 205 207 206 196 184 162 173 105 121 125 151 147 153 156 171 158 169 195 184 90 105 120 165 132 64 44 27 15 307 284 292 302 288 270 282
228 234 227 218 221 202 210 207 222 223 218 216 198 193 199 198 203 192 164 153 160 142 155 116 186 155 150 156 158 147 127 129 128 149 120 85 70 67 81 82 55 50 333 341 11 14 2 337 324
220 227 236 242 204 212 188 208 205 221 207 198 189 191 184 190 199 184 157 164 157 152 157 169 161 151 166 186 153 159 145 158 162 138 108 84 80 63 76 73 60 46 348 37 20 351 352 334 322
221 213 228 238 240 222 191 215 204 212 207 185 184 193 184 180 181 193 152 164 169 155 143 137 143 161 167 158 153 161 159 124 113 122 122 99 58 57 65 54 54 39 18 46 3 353 352 311 327
235 212 217 230 241 214 190 195 231 188 210 185 184 184 187 175 181 176 153 153 135 126 123 122 128 155 159 155 142 152 132 141 138 134 145 138 115 74 48 53 61 64 18 24 8 348 351 334 342
231 233 196 203 223 181 213 192 233 203 194 187 183 177 192 171 176 163 159 156 134 132 137 135 132 134 112 105 110 112 112 110 124 150 136 124 116 102 58 64 45 34 23 27 14 335 319 4 9
214 223 213 192 168 206 219 222 224 269 209 181 170 176 176 161 160 136 130 120 123 133 125 112 98 83 94 93 94 91 94 88 64 51 62 81 87 87 77 72 67 48 35 28 20 315 23 324 335
210 216 200 219 190 206 184 193 85 66 158 166 153 174 167 156 120 120 122 131 106 94 97 99 98 103 94 94 85 74 76 75 81 74 74 60 86 137 87 75 52 38 24 13 21 326 319 10 337
236 192 200 230 187 213 191 149 145 134 101 135 130 110 98 91 97 96 97 83 83 89 94 101 102 101 94 91 87 81 82 81 80 78 79 79 67 71 68 54 28 28 12 20 19 343 315 301 350
207 227 203 221 227 210 180 168 151 140 125 98 95 99 112 117 123 99 95 96 93 90 103 107 108 104 98 96 97 96 96 91 85 79 79 86 86 52 56 25 14 7 359 34 323 294 304 326 317
203 223 204 203 224 317 358 144 151 136 138 136 131 114 104 102 104 111 113 112 105 117 114 110 107 104 102 102 100 97 94 90 83 81 71 74 49 47 44 23 7 3 18 325 356 17 1 354 358